Weather Roundup
Issued by NWS Chicago, IL

Home | Current Version | Previous Version | Text Only | Print | Product List | Glossary Off
Versions: 1 2 3 4 5 6 7 8 9 10 11 12 13 14 15 16 17 18 19 20 21 22 23 24 25 26 27 28 29 30 31 32 33 34 35 36 37 38 39 40 41 42 43 44 45 46 47 48 49 50

000
NZUS59 KLOT 311608
HRRLOT

CHICAGO AREA WEATHER ROUNDUP
NATIONAL WEATHER SERVICE CHICAGO/ROMEOVILLE IL
1100 AM CDT MON AUG 31 2015

NOTE: "FAIR" INDICATES FEW OR NO CLOUDS BELOW 12,000 FEET WITH NO
SIGNIFICANT WEATHER AND/OR OBSTRUCTIONS TO VISIBILITY.

* THESE STATIONS ARE NOT UNDER NWS QUALITY CONTROL. THEY ALSO MAY NOT
  REPORT WEATHER SUCH AS PRECIPITATION OR FOG.

ILZ005-006-012>014-019>023-311700-
NORTHEAST ILLINOIS

CITY           SKY/WX    TMP DP  RH WIND       PRES   REMARKS
OHARE          SUNNY     78  67  68 CALM      30.08S HX  80
MIDWAY         SUNNY     80  67  64 CALM      30.08S HX  82
AURORA         SUNNY     79  70  74 CALM      30.09F HX  82
LANSING*       SUNNY     77  69  76 CALM      30.10S
JOLIET*        SUNNY     80  71  73 CALM      30.09S HX  84
WAUKEGAN       SUNNY     75  67  76 VRB5      30.08S
DUPAGE AIRPORT SUNNY     78  68  71 CALM      30.08F HX  80
WHEELING       SUNNY     77  67  71 S3        30.10R
KANKAKEE*      SUNNY     79  72  79 CALM      30.10S HX  82
MORRIS*        SUNNY     75  73  93 CALM      30.07F
LEWIS AIRPORT* SUNNY     78  69  74 CALM      30.09S HX  80
NORTHERLY IS     N/A     72  66  81 NE3         N/A
$$

WIZ051-052-058>065-066-070>072-311700-
SOUTHEAST WISCONSIN

CITY           SKY/WX    TMP DP  RH WIND       PRES   REMARKS
MILWAUKEE      CLOUDY    73  65  75 W7        30.08S
KENOSHA*       MOSUNNY   76  68  76 CALM      30.09S HAZE
RACINE*        CLOUDY    75  66  73 VRB3      30.10S
BURLINGTON     PTSUNNY   73  67  80 W5        30.09R
WAUKESHA       CLOUDY    68  64  88 SW6       30.10R
WEST BEND      CLOUDY    72  63  73 CALM      30.08R
$$

INZ001>003-010>013-019-020-311700-
NORTHWEST INDIANA

CITY           SKY/WX    TMP DP  RH WIND       PRES   REMARKS
GARY*          MOSUNNY   79  68  69 CALM      30.10S HX  81
MICHIGAN CITY* NOT AVBL
RENSSELAER*    NOT AVBL
VALPARAISO     MOSUNNY   75  70  84 CALM      30.11S
$$

LMZ740>746-311700-
SOUTHERN LAKE MICHIGAN

STATION/POSITION TIME  SKY/WX   TEMP WIND        PRES    VSBY
                                AIR  DIR/SP/G
                 (UTC)          (F)  (DEG/KT/KT) (MB)    (MI)
HARRISON CRIB    NOT AVBL
BURNHAM HARBOR   NOT AVBL
CALUMET HARBOR   NOT AVBL
BURNS HARBOR     1500            72  290/  3/  5 1019.6R
MICHIGAN CITY    NOT AVBL
$$

ABBREVIATIONS USED IN REMARKS
   TC - TEMPERATURE IN CELSIUS
  WCI - WIND CHILL INDEX
   HX - HEAT INDEX
  VSB - VISIBILITY
$$



USA.gov is the U.S. government's official web portal to all federal, state and local government web resources and services.